Home   Weather   Neuburg an der Donau   Past weeks

Flag for Germany Past Weather in Neuburg an der Donau, Bavaria, Germany — Yesterday and Last 2 Weeks

Now
9 °F

Ice fog.


Feels Like: 9 °F
Forecast: 7 / 21 °F
Wind: 1 mph from North

Location: Neuburg / Donau

Current Time: Jan 22, 2017 at 12:44:16 am

Latest Report: Jan 21, 2017 at 11:20 pm


Visibility: 1 mi

Pressure: 30.36 "Hg

Humidity: 92%

Dew Point: 7 °F

Location of Neuburg an der DonauLocation

Past Weather in Neuburg an der Donau — Graph

°F

Neuburg an der Donau Temperature Yesterday

Maximum temperature yesterday: 23 °F (at 2:20 pm)
Minimum temperature yesterday: 5 °F (at 5:20 am)
Average temperature yesterday: 12 °F

High & Low Weather Summary for the Past Weeks

 TemperatureHumidityPressure
High41 °F (Jan 13, 3:35 am)100% (Jan 8, 12:20 am)30.66 "Hg (Jan 8, 12:20 am)
Low-2 °F (Jan 6, 11:50 pm)55% (Jan 20, 2:20 pm)29.36 "Hg (Jan 13, 2:20 am)
Average25 °F85%30.16 "Hg
* Reported Jan 6 11:20 pm — Jan 21 11:20 pm, Neuburg an der Donau, Weather by CustomWeather, © 2017

Note: Actual official high and low records may vary slightly from our data, if they occured in-between our weather recording intervals... More about our weather records

Advertising

Neuburg an der Donau Weather History for the Previous 24 Hours

Scroll right to see more
 ConditionsComfort  
Time TempWeatherWind HumidityBarometerVisibility
11:20 pm
Sat, Jan 21
9 °FIce fog.1 mph92%30.36 "Hg1 mi
10:20 pm10 °FIce fog.1 mph85%30.36 "Hg1 mi
9:40 pm9 °FIce fog.1 mph100%30.36 "Hg1 mi
9:20 pm10 °FIce fog.1 mph92%30.36 "Hg1 mi
8:35 pm10 °FIce fog.2 mph100%30.36 "Hg2 mi
7:20 pm12 °FIce fog.2 mph92%30.36 "Hg3 mi
6:20 pm16 °FIce fog.3 mph93%30.36 "Hg2 mi
5:20 pm19 °FIce fog.1 mph86%30.36 "Hg2 mi
4:20 pm21 °FHaze.3 mph74%30.36 "Hg2 mi
3:20 pm23 °FCold.2 mph68%30.36 "Hg4 mi
2:20 pm23 °FHaze.2 mph68%30.36 "Hg3 mi
1:20 pm19 °FHaze.2 mph73%30.39 "Hg3 mi
12:20 pm19 °FHaze.2 mph73%30.42 "Hg3 mi
11:20 am16 °FHaze.2 mph79%30.42 "Hg3 mi
10:20 am12 °FIce fog.No wind79%30.45 "Hg3 mi
9:20 am7 °FIce fog.2 mph85%30.45 "Hg3 mi
8:20 am5 °FIce fog.2 mph85%30.42 "Hg2 mi
7:20 am7 °FIce fog.1 mph85%30.42 "Hg3 mi
6:20 am5 °FIce fog.1 mph92%30.42 "Hg3 mi
5:50 am5 °FIce fog.2 mph92%30.42 "Hg3 mi
5:20 am5 °FIce fog.1 mph92%30.42 "Hg3 mi
4:20 am7 °FIce fog.2 mph92%30.42 "Hg3 mi
3:20 am7 °FIce fog.2 mph92%30.42 "Hg3 mi
2:20 am9 °FFrigid.1 mph92%30.42 "Hg4 mi
1:20 am9 °FFrigid.2 mph85%30.42 "Hg4 mi
12:20 am10 °FCold.1 mph85%30.42 "Hg5 mi
Weather by CustomWeather, © 2017

See weather overviewHow to use our weather pages